{"data":{"norad_id":55295,"intl_designator":"2023-010AC","name":"STARLINK-5293","alt_names":[],"object_type":"PAYLOAD","status":"ACTIVE","operator":null,"country":"US","launch_date":"2023-01-19","launch_site_code":"AFWTR","launch_vehicle":null,"mission":null,"orbit_class":"UNKNOWN","rcs_meters":null,"size_class":null,"mass_kg":null,"dimensions":null,"purposes":["comms"],"wikipedia_slug":null,"has_3d_model":false,"image_url":null,"decayed_at":null,"tle_current":{"epoch":"2026-09-20T22:00:03.000096Z","epoch_age_seconds":57410,"freshness":"FRESH","line1":"1 55295U 23010AC  26263.91670139  .00113833  00000+0  79856-2 0  9992","line2":"2 55295  70.0006 272.3012 0002032 208.2201 277.1535 15.04523336  5715","mean_motion":15.04523336,"eccentricity":0.0002032,"inclination_deg":70.0006,"raan_deg":272.3012,"arg_perigee_deg":208.2201,"mean_anomaly_deg":277.1535,"bstar":0.0079856,"rev_number":571,"period_min":95.71137685564,"perigee_km":551.56083984017,"apogee_km":554.37764141636,"semimajor_km":6931.1062406283,"source":"CELESTRAK","updated_at":"2026-09-21T09:00:33.170766Z"}}}